Regional Weather Roundup
Issued by NWS

Home | Current Version | Previous Version | Graphics & Text | Print | Product List | Glossary On
Versions: 1 2 3 4 5 6 7 8 9 10 11 12 13 14 15 16 17 18 19 20 21 22 23 24 25 26 27 28 29 30 31 32 33 34 35 36 37 38 39 40 41 42 43 44 45 46 47 48 49 50
000
ASUS43 KLMK 221810
RWRKY
KENTUCKY REGIONAL WEATHER ROUNDUP
NATIONAL WEATHER SERVICE LOUISVILLE KY
200 PM EDT WED MAR 22 2017

NOTE "FAIR" INDICATES FEW OR NO CLOUDS BELOW 12,000 FEET
WITH NO SIGNIFICANT WEATHER AND/OR OBSTRUCTIONS TO VISIBILITY.

KYZ001>023-026-027-061>063-070>075-221900-
WESTERN AND SOUTH CENTRAL KENTUCKY

CITY           SKY/WX    TMP DP  RH WIND       PRES   REMARKS
PADUCAH        MOSUNNY   52  23  32 E15G22    30.38F
HENDERSON      SUNNY     48  21  34 E13       30.41F
OWENSBORO      SUNNY     48  20  32 N9        30.43F
HOPKINSVILLE   MOSUNNY   53  24  33 NE12G20   30.36F
BOWLING GREEN  SUNNY     52  16  24 NE13      30.39F
GLASGOW        SUNNY     49  19  31 NE12G17   30.39F
$$

KYZ024-025-028>034-038-045-046-053-221900-
NORTH CENTRAL KENTUCKY

CITY           SKY/WX    TMP DP  RH WIND       PRES   REMARKS
LOUISVILLE/SDF MOSUNNY   48  11  22 NE12      30.45F
LOUISVILLE/LOU SUNNY     46  14  27 N12G18    30.46F
FORT KNOX      SUNNY     46  14  28 N13G18    30.41F
$$

KYZ035>037-039>044-047>052-055>060-089>105-221900-
NORTHEAST KENTUCKY

CITY           SKY/WX    TMP DP  RH WIND       PRES   REMARKS
LEXINGTON      SUNNY     45  14  28 NE17G26   30.42F
COVINGTON      SUNNY     39  16  39 N15G22    30.48F WCI  31
FRANKFORT      SUNNY     46  12  25 N13G18    30.43F
$$

KYZ054-064>069-076>088-106>120-221900-
SOUTHEAST KENTUCKY

CITY           SKY/WX    TMP DP  RH WIND       PRES   REMARKS
JACKSON        SUNNY     49  21  33 NE6       30.37S
LONDON         SUNNY     49  14  24 N15G21    30.34F
SOMERSET       SUNNY     46  19  34 N10G18    30.38F
MIDDLESBORO    MOSUNNY   53  20  27 N9        30.30F
MONTICELLO     CLEAR     48  20  32 N17G23    30.38F
$$




USA.gov is the U.S. government's official web portal to all federal, state and local government web resources and services.